Location: Utrecht
(52.0907°N, 5.1214°E)
Time: 17:24:29
(UTC+02:00)

DIWATA 2B (PO-101) - Pass Details

Date: 07 July 2022
Orbit: 583 x 599 km, 98.0° (Epoch: 07 August)

Event Time Altitude Azimuth Distance (km) Brightness Sun altitude
Exits shadow 04:30:03 - 216° (SW) 2,029 ? -7.0°
Reaches altitude 10° 04:30:21 10° 218° (SW) 1,939 ? -7.0°
Maximum altitude 04:33:33 21° 268° (W) 1,370 ? -6.7°
Drops below altitude 10° 04:36:47 10° 318° (NW) 1,950 ? -6.4°
Sets 04:39:25 0° 335° (NNW) 2,857 ? -6.1°
